Weather History for Kaneohe MCBH, HI

Change the Weather History Date:

Sunday, May 5, 2013

  Actual Average Record
Temperature  
Mean Temperature 75 °F -  
Max Temperature 79 °F 76 °F 84 °F (2014)
Min Temperature 70 °F 68 °F 66 °F (1999)
Cooling Degree Days 10    
Growing Degree Days 25 (Base 50)    
Moisture  
Dew Point 70 °F    
Average Humidity 85    
Maximum Humidity 99    
Minimum Humidity 67    
Precipitation  
Precipitation 0.10 in - - ()
Sea Level Pressure  
Sea Level Pressure 29.90 in    
Wind  
Wind Speed 6 mph (SW)    
Max Wind Speed 13 mph    
Max Gust Speed 20 mph    
Visibility 10 miles    
Events Rain    
Averages and records for this station are not official NWS values.
T = Trace of Precipitation, MM = Missing Value Source: NWS Daily Summary

Daily Weather History Graph

Daily Weather History Graph

Search for Another Location

Airport:

Trip Planner

Search our weather history database for the weather conditions in past years. The results will help you decide how hot, cold, wet, or windy it might be!

Date:

Astronomy

May. 05, 2013 Rise Set
Actual Time 5:57 AM HST 6:58 PM HST
Civil Twilight 5:33 AM HST 7:21 PM HST
Nautical Twilight 5:06 AM HST 7:49 PM HST
Astronomical Twilight 4:37 AM HST 8:18 PM HST
Moon 3:04 AM HST (5/5) 3:34 PM HST (5/5)
Length of Visible Light 13h 48m
Length of Day
13h 00m
Waning Crescent, 16% of the Moon is Illuminated
May 5
Waning Crescent
May 9
New
May 17
First Quarter
May 24
Full
May 31
Last Quarter

Hourly Weather History & Observations

Time (HST) Temp. Dew Point Humidity Pressure Visibility Wind Dir Wind Speed Gust Speed Precip Events Conditions
12:57 AM 75.2 °F 72.0 °F 90% 29.93 in 10.0 mi West 9.2 mph - 0.00 in   Mostly Cloudy
1:57 AM 75.2 °F 71.1 °F 87% 29.91 in 10.0 mi SSW 4.6 mph - 0.01 in   Overcast
2:57 AM - - N/A% 29.89 in 10.0 mi Calm Calm - N/A   Overcast
3:57 AM - - N/A% 29.88 in 10.0 mi Calm Calm - N/A   Overcast
4:57 AM 73.4 °F 73.0 °F 99% 29.88 in 10.0 mi Calm Calm - N/A   Scattered Clouds
5:57 AM 73.4 °F 73.0 °F 99% 29.89 in 10.0 mi SSW 5.8 mph - N/A   Scattered Clouds
6:57 AM 75.2 °F 70.0 °F 84% 29.91 in 10.0 mi Calm Calm - N/A   Scattered Clouds
7:57 AM 75.2 °F 71.1 °F 87% 29.93 in 10.0 mi South 6.9 mph - N/A   Scattered Clouds
8:57 AM 75.2 °F 71.1 °F 87% 29.94 in 10.0 mi SE 3.5 mph - 0.00 in   Overcast
9:57 AM 76.1 °F 71.1 °F 84% 29.93 in 10.0 mi SSE 5.8 mph - 0.00 in   Overcast
10:57 AM 77.7 °F 70.0 °F 77% 29.92 in 10.0 mi SW 12.7 mph 18.4 mph N/A   Mostly Cloudy
11:57 AM 79.9 °F 68.0 °F 67% 29.90 in 10.0 mi South 8.1 mph - N/A   Mostly Cloudy
12:57 PM 79.9 °F 69.1 °F 69% 29.88 in 10.0 mi SSW 11.5 mph - N/A   Mostly Cloudy
1:30 PM - - N/A% - - North - - N/A   Unknown
1:57 PM 77.5 °F 66.9 °F 70% 29.88 in 10.0 mi SSW 8.1 mph - 0.06 in Rain Light Rain
2:57 PM 76.6 °F 73.9 °F 91% 29.86 in 10.0 mi SSW 8.1 mph - 0.00 in   Overcast
3:45 PM - - N/A% - - North - - N/A   Unknown
3:57 PM 76.1 °F 71.1 °F 84% 29.84 in 10.0 mi SSW 12.7 mph - 0.00 in   Overcast
4:57 PM 76.3 °F 69.1 °F 78% 29.84 in 10.0 mi SSW 10.4 mph 19.6 mph N/A   Overcast
5:57 PM 76.3 °F 66.9 °F 73% 29.85 in 10.0 mi SSW 10.4 mph - N/A   Mostly Cloudy
6:57 PM 75.6 °F 68.0 °F 77% 29.87 in 10.0 mi West 6.9 mph - N/A   Mostly Cloudy
7:57 PM 75.2 °F 68.0 °F 78% 29.90 in 10.0 mi West 8.1 mph - N/A   Overcast
8:57 PM 72.5 °F 66.9 °F 83% 29.91 in 10.0 mi North 11.5 mph - 0.00 in   Overcast
9:57 PM 71.8 °F 71.1 °F 98% 29.93 in 10.0 mi North 8.1 mph - 0.03 in Rain Light Rain
10:57 PM 71.2 °F 71.1 °F 99% 29.93 in 10.0 mi WNW 9.2 mph - 0.00 in   Overcast
11:41 PM 71.6 °F 69.8 °F 94% 29.93 in 6.2 mi West 5.8 mph - N/A   Overcast
11:57 PM 70.5 °F 70.0 °F 98% 29.91 in 10.0 mi West 3.5 mph - N/A   Overcast